Location: Maccacari
(45.1333°N, 11.1333°E)
Time: 21:38:03
(UTC+00:00)

Tiros 1 despin weight - Visible Passes

Search period start: 21 January 2021 00:00
Search period end: 31 January 2021 00:00
Orbit: 594 x 641 km, 48.2° (Epoch: 20 January)

Date Brightness Start Highest point End Pass type
(mag) Time Alt. Az. Time Alt. Az. Time Alt. Az.
21 Jan ? 17:50:32 10° WNW 17:54:57 59° N 17:56:09 42° ENE visible
21 Jan ? 19:32:12 10° WNW 19:33:13 17° WNW 19:33:13 17° WNW visible
22 Jan ? 18:07:01 10° WNW 18:11:27 69° NNE 18:11:58 62° ENE visible
22 Jan ? 19:48:41 10° WNW 19:49:01 12° WNW 19:49:01 12° WNW visible
23 Jan ? 16:41:42 10° W 16:46:08 57° N 16:50:31 10° E visible
23 Jan ? 18:23:26 10° WNW 18:27:50 87° WNW 18:27:50 87° WNW visible
24 Jan ? 16:58:13 10° WNW 17:02:40 62° N 17:06:43 12° E visible
24 Jan ? 18:39:52 10° WNW 18:43:47 56° WSW 18:43:47 56° WSW visible
25 Jan ? 17:14:40 10° WNW 17:19:09 76° NNE 17:22:45 15° ESE visible
25 Jan ? 18:56:25 10° W 18:59:50 34° SW 18:59:50 34° SW visible
26 Jan ? 17:31:05 10° WNW 17:35:34 78° SSW 17:38:55 17° ESE visible
26 Jan ? 19:13:16 10° W 19:16:01 21° SW 19:16:01 21° SW visible
27 Jan ? 17:47:33 10° WNW 17:51:53 49° SSW 17:55:16 15° SE visible
27 Jan ? 19:31:15 10° WSW 19:32:21 11° SW 19:32:21 11° SW visible
28 Jan ? 18:04:12 10° W 18:08:04 29° SW 18:11:48 11° SSE visible
29 Jan ? 18:21:18 10° W 18:24:08 17° SW 18:26:56 10° S visible
30 Jan ? 16:55:15 10° WNW 16:59:28 40° SSW 17:03:37 10° SE visible
